FW9167 Weather Reports


Display with metric or nautical units.
time (UTC)temp
F
wind
direction
speed
MPH
gust
MPH
rain 1hr
in
rain 24hr
in
rain mn
in
humidity
%
barometer
mb
20260906173102 63 205 0.0 4.0 0.00 0.00 0.00 56 1015.3
20260906171602 63 204 0.0 4.0 0.00 0.00 0.00 55 1015.3
20260906164601 60 115 0.0 2.0 0.00 0.00 0.00 60 1015.6
20260906163102 61 96 0.0 4.0 0.00 0.00 0.00 60 1015.6
20260906161602 60 78 0.0 3.0 0.00 0.00 0.00 61 1015.4
20260906154602 58 148 0.0 3.0 0.00 0.00 0.00 63 1015.4
20260906153102 57 92 0.0 1.0 0.00 0.00 0.00 65 1015.3
20260906151602 56 356 2.0 3.0 0.00 0.00 0.00 66 1015.3
20260906144605 53 116 0.0 1.0 0.00 0.00 0.00 74 1015.3
20260906143105 51 12 0.0 0.0 0.00 0.00 0.00 76 1015.3
20260906141602 50 10 0.0 0.0 0.00 0.00 0.00 79 1015.2
20260906134602 47 326 2.0 3.0 0.00 0.00 0.00 80 1014.8
20260906133102 46 15 0.0 3.0 0.00 0.00 0.00 79 1014.7
20260906131602 44 328 1.0 1.0 0.00 0.00 0.00 84 1014.7
20260906124601 43 19 0.0 1.0 0.00 0.00 0.00 84 1014.6
20260906123102 44 336 0.0 1.0 0.00 0.00 0.00 80 1014.8
20260906114602 48 20 1.0 4.0 0.00 0.00 0.00 74 1014.7
20260906113104 47 338 0.0 2.0 0.00 0.00 0.00 77 1014.8
20260906104604 47 329 0.0 2.0 0.00 0.00 0.00 76 1014.9
20260906103102 48 15 0.0 4.0 0.00 0.00 0.00 75 1014.8
20260906101605 47 344 0.0 2.0 0.00 0.00 0.00 76 1014.7
20260906094602 51 326 0.0 2.0 0.00 0.00 0.00 70 1014.8
20260906093102 51 287 0.0 3.0 0.00 0.00 0.00 68 1014.8
20260906091602 51 313 4.0 5.0 0.00 0.00 0.00 69 1014.9
20260906084602 50 288 0.0 4.0 0.00 0.00 0.00 71 1015.2
20260906081602 48 45 0.0 1.0 0.00 0.00 0.00 75 1015.2
20260906074602 52 313 0.0 1.0 0.00 0.00 0.00 65 1015.6
20260906064601 51 327 2.0 7.0 0.00 0.00 0.00 69 1016.2
20260906063102 49 333 0.0 2.0 0.00 0.00 0.00 73 1016.4
20260906061602 50 6 0.0 1.0 0.00 0.00 0.00 70 1016.2
20260906054602 55 355 0.0 1.0 0.00 0.00 0.00 61 1015.7
20260906053103 56 278 0.0 3.0 0.00 0.00 0.00 61 1016.1
20260906051602 56 347 0.0 1.0 0.00 0.00 0.00 65 1016.3
20260906044605 60 36 0.0 1.0 0.00 0.00 0.00 48 1016.3
20260906041602 60 330 0.0 3.0 0.00 0.00 0.00 47 1016.0
20260906034602 61 333 3.0 8.0 0.00 0.00 0.00 46 1015.8
20260906033103 60 307 4.0 7.0 0.00 0.00 0.00 49 1015.9
20260906031602 59 333 7.0 7.0 0.00 0.00 0.00 49 1016.0
20260906024602 59 318 1.0 5.0 0.00 0.00 0.00 55 1015.7
20260906023101 60 322 0.0 5.0 0.00 0.00 0.00 52 1015.6
20260906021601 62 322 1.0 4.0 0.00 0.00 0.00 49 1015.3
20260906014602 67 23 1.0 2.0 0.00 0.00 0.00 48 1015.4
20260906013102 69 269 0.0 3.0 0.00 0.00 0.00 41 1015.4
20260906011602 73 237 0.0 1.0 0.00 0.00 0.00 33 1015.3
20260906004602 73 225 0.0 4.0 0.00 0.00 0.00 31 1015.4
20260906003102 76 170 0.0 3.0 0.00 0.00 0.00 25 1015.4
20260906001602 75 131 0.0 4.0 0.00 0.00 0.00 26 1015.4
20260905234602 76 94 1.0 4.0 0.00 0.00 0.00 29 1015.5
20260905233102 75 333 0.0 2.0 0.00 0.00 0.00 29 1015.6
20260905224602 75 236 4.0 10.0 0.00 0.00 0.00 29 1015.8
20260905223102 76 173 0.0 5.0 0.00 0.00 0.00 29 1015.9
20260905221603 75 131 5.0 7.0 0.00 0.00 0.00 31 1016.0
20260905214602 74 107 5.0 8.0 0.00 0.00 0.00 33 1016.4
20260905213102 74 142 0.0 5.0 0.00 0.00 0.00 35 1016.4
20260905211602 74 42 1.0 4.0 0.00 0.00 0.00 35 1016.5
20260905204602 73 231 0.0 4.0 0.00 0.00 0.00 37 1016.6
20260905203102 73 148 0.0 7.0 0.00 0.00 0.00 41 1016.8
20260905201602 72 228 0.0 5.0 0.00 0.00 0.00 39 1016.9
20260905194605 70 120 0.0 4.0 0.00 0.00 0.00 40 1017.1
20260905193106 69 110 3.0 5.0 0.00 0.00 0.00 41 1017.1
20260905191603 69 138 1.0 5.0 0.00 0.00 0.00 41 1017.3
20260905184602 66 111 2.0 4.0 0.00 0.00 0.00 51 1017.8
20260905183102 65 210 0.0 3.0 0.00 0.00 0.00 55 1018.0
20260905181602 63 91 0.0 4.0 0.00 0.00 0.00 55 1018.1
20260905180106 62 134 1.0 4.0 0.00 0.00 0.00 59 1018.2
20260905174602 61 136 2.0 4.0 0.00 0.00 0.00 59 1018.4